Regional Weather Roundup
Issued by NWS

Home | Current Version | Previous Version | Text Only | Print | Product List | Glossary On
Versions: 1 2 3 4 5 6 7 8 9 10 11 12 13 14 15 16 17 18 19 20 21 22 23 24 25 26 27 28 29 30 31 32 33 34 35 36 37 38 39 40 41 42 43 44 45 46 47 48 49 50
000
ASUS45 KPSR 300610
RWRAZ

ARIZONA REGIONAL HOURLY WEATHER ROUNDUP
NATIONAL WEATHER SERVICE PHOENIX AZ
1100 PM MST THU JAN 29 2015

NOTE: FAIR INDICATES FEW OR NO CLOUDS BELOW 12,000 FEET WITH NO
SIGNIFICANT WEATHER AND/OR OBSTRUCTIONS TO VISIBILITY.

AZZ001>003-036-300700-
NORTHWEST ARIZONA

CITY           SKY/WX    TMP DP  RH WIND       PRES   REMARKS
BULLHEAD CITY  CLOUDY    66  39  37 NE9       30.04R
KINGMAN        LGT RAIN  50  47  89 SE7       30.10S
6HR MIN TEMP:  50; 6HR MAX TEMP:  58; 6HR PCP:  0.05;

$$

AZZ004>008-015-016-018-300700-
NORTH CENTRAL ARIZONA

CITY           SKY/WX    TMP DP  RH WIND       PRES   REMARKS
GRAND CANYON   LGT RAIN  37  35  92 NE9       30.19F WCI  30
6HR MIN TEMP:  37; 6HR MAX TEMP:  45; 6HR PCP:  0.18;

PRESCOTT       LGT RAIN  47  44  90 E5        30.10F FOG
6HR MIN TEMP:  46; 6HR MAX TEMP:  55; 6HR PCP:  0.12;

FLAGSTAFF      LGT RAIN  38  36  92 NE7       30.18F WCI  33
6HR MIN TEMP:  38; 6HR MAX TEMP:  42; 6HR PCP:  0.22;

PAYSON         LGT RAIN  46  45  93 VRB5G12   30.16F
$$

AZZ009>014-017-300700-
NORTHEAST ARIZONA

CITY           SKY/WX    TMP DP  RH WIND       PRES   REMARKS
WINSLOW        LGT RAIN  45  43  93 CALM      30.19S
6HR MIN TEMP:  44; 6HR MAX TEMP:  55; 6HR PCP:  0.10;

SAINT JOHNS    LGT RAIN  42  40  92 E12       30.20F
6HR MIN TEMP:  42; 6HR MAX TEMP:  59; 6HR PCP:  0.25;

WINDOW ROCK    LGT RAIN  38  33  82 SE5       30.29R WCI  34
6HR MIN TEMP:  38; 6HR MAX TEMP:  49; 6HR PCP:  0.02;

SHOW LOW       LGT RAIN  41  39  93 CALM      30.23F
$$

AZZ023-300700-
GREATER PHOENIX AREA

CITY           SKY/WX    TMP DP  RH WIND       PRES   REMARKS
PHOENIX        LGT RAIN  60  57  89 SW3       30.00F
6HR MIN TEMP:  60; 6HR MAX TEMP:  67; 6HR PCP:  0.17;

BUCKEYE          N/A     57  57 100 S3        30.03F
LUKE AFB       LGT RAIN  59  57  96 NW5       30.01F
6HR MIN TEMP:  59; 6HR MAX TEMP:  65; 6HR PCP:  0.13;

DEER VALLEY    LGT RAIN  60  53  77 CALM      30.01F
6HR MIN TEMP:  58; 6HR MAX TEMP:  67; 6HR PCP:  0.10;

SCOTTSDALE     LGT RAIN  59  56  89 W3        30.02F
6HR MIN TEMP:  59; 6HR MAX TEMP:  68; 6HR PCP:  0.10;

MESA-GATEWAY   CLOUDY    57  55  94 SW5       30.04S
$$

AZZ027-028-300700-
SOUTHWEST MARICOPA COUNTY AND PINAL COUNTY

CITY           SKY/WX    TMP DP  RH WIND       PRES   REMARKS
CASA GRANDE    CLOUDY    57  54  88 CALM      30.03S
6HR MIN TEMP:  57; 6HR MAX TEMP:  61; 6HR PCP:  0.02;

GILA BEND      LGT RAIN  58  57  97 CALM      30.02S
6HR MIN TEMP:  58; 6HR MAX TEMP:  63; 6HR PCP:  0.08;

$$

AZZ503-504-507>509-300700-
SOUTHEAST ARIZONA

CITY           SKY/WX    TMP DP  RH WIND       PRES   REMARKS
TUCSON         CLOUDY    58  52  80 E3        30.05F
6HR MIN TEMP:  58; 6HR MAX TEMP:  67; 6HR PCP: TRACE;

DAVIS-MONTHAN  CLOUDY    56  54  91 SE8       30.03F
6HR MIN TEMP:  56; 6HR MAX TEMP:  67; 6HR PCP: TRACE;

NOGALES        LGT RAIN  54  51  90 CALM      30.07F
6HR MIN TEMP:  53; 6HR MAX TEMP:  69; 6HR PCP:  0.06;

SIERRA VISTA   LGT RAIN  52  48  87 SE13      30.13F
                                      6HR PCP:  0.02;

DOUGLAS        LGT RAIN  51  46  83 E13       30.16S
6HR MIN TEMP:  51; 6HR MAX TEMP:  63; 6HR PCP:  0.07;

SAFFORD        CLOUDY    53  45  74 E14       30.18F
6HR MIN TEMP:  52; 6HR MAX TEMP:  63; 6HR PCP:  0.02;

$$

AZZ020-021-025-026-031-300700-
SOUTHWEST ARIZONA

CITY           SKY/WX    TMP DP  RH WIND       PRES   REMARKS
YUMA           CLOUDY    65  51  60 SE6       29.99F
6HR MIN TEMP:  65; 6HR MAX TEMP:  72;

$$

CAZ031-033-041-043-047-048-061-300700-
SOUTHERN CALIFORNIA

CITY           SKY/WX    TMP DP  RH WIND       PRES   REMARKS
DOWNTOWN L.A.  CLOUDY    65  48  54 CALM      30.02S
6HR MIN TEMP:  64; 6HR MAX TEMP:  72; 6HR PCP: TRACE;

L.A. AIRPORT   CLOUDY    65  48  54 CALM      30.03R
6HR MIN TEMP:  63; 6HR MAX TEMP:  67; 6HR PCP: TRACE;

SAN DIEGO      LGT RAIN  63  54  72 S3        30.02F
6HR MIN TEMP:  63; 6HR MAX TEMP:  66; 6HR PCP: TRACE;

BURBANK        CLOUDY    64  45  49 CALM      30.03S
6HR MIN TEMP:  63; 6HR MAX TEMP:  72;

ONTARIO        CLOUDY    65  40  39 NE6       30.02F
6HR MIN TEMP:  62; 6HR MAX TEMP:  71; 6HR PCP: TRACE;

RIVERSIDE      CLOUDY    63  42  46 CALM      30.02F
6HR MIN TEMP:  63; 6HR MAX TEMP:  70; 6HR PCP: TRACE;

PALM SPRINGS   CLOUDY    68  42  38 W6        30.02F
6HR MIN TEMP:  67; 6HR MAX TEMP:  74;

EL CENTRO NAS  MOCLDY    60  51  72 CALM      29.97F
6HR MIN TEMP:  60; 6HR MAX TEMP:  71;

IMPERIAL       CLOUDY    64  48  56 CALM      29.97F
6HR MIN TEMP:  62; 6HR MAX TEMP:  70;

BLYTHE         CLOUDY    62  53  72 E3        30.00S
6HR MIN TEMP:  62; 6HR MAX TEMP:  70;

NEEDLES        CLOUDY    62  48  60 CALM      30.03R
6HR MIN TEMP:  62; 6HR MAX TEMP:  69; 6HR PCP: TRACE;

$$

NVZ020-UTZ003-300700-
SOUTHERN NEVADA-UTAH

CITY           SKY/WX    TMP DP  RH WIND       PRES   REMARKS
LAS VEGAS      CLOUDY    58  42  55 S9        30.03S
6HR MIN TEMP:  58; 6HR MAX TEMP:  64;

SALT LAKE CITY CLOUDY    39  35  86 CALM      30.25F
6HR MIN TEMP:  38; 6HR MAX TEMP:  42;

$$

NMZ009-TXZ055-300700-
NEW MEXICO-WEST TEXAS

CITY           SKY/WX    TMP DP  RH WIND       PRES   REMARKS
ALBUQUERQUE    CLOUDY    42  18  37 E21       30.40S
6HR MIN TEMP:  42; 6HR MAX TEMP:  48;

EL PASO        CLOUDY    50  36  58 E14       30.35F
6HR MIN TEMP:  50; 6HR MAX TEMP:  56;

$$


........................KEY........................
SKY/WX - SKY CONDITION/WEATHER
TMP    - TEMPERATURE IN FAHRENHEIT
DP     - DEW POINT IN FAHRENHEIT
RH     - RELATIVE HUMIDITY IN PERCENT
WIND   - DIRECTION AND SPEED IN MILES PER HOUR (MPH)
VRB    - VARIABLE WIND DIRECTION
PRES   - MEAN SEA LEVEL PRESSURE IN INCHES OF MERCURY
         F - FALLING PRESSURE   R - RISING PRESSURE
         S - STEADY PRESSURE
VSB    - VISIBILITY IN MILES
HX     - HEAT INDEX IN FAHRENHEIT
WCI    - WIND CHILL INDEX IN FAHRENHEIT
TC     - TEMPERATURE IN CELSIUS WHICH IS ALSO KNOWN AS
         TEMPERATURE IN CENTIGRADE
AFB    - AIR FORCE BASE
         LUKE AFB IS LUKE AIR FORCE BASE
         DAVIS-MONTHAN IS DAVIS-MONTHAN AIR FORCE BASE
NAS    - NAVAL AIR STATION
         EL CENTRO NAS IS EL CENTRO NAVAL AIR STATION
N/A    - NOT AVAILABLE


USA.gov is the U.S. government's official web portal to all federal, state and local government web resources and services.